Hourly Weather Roundup
Issued by NWS Central Illinois

Home | Current Version | Previous Version | Text Only | Print | Product List | Glossary On
Versions: 1 2 3 4 5 6 7 8 9 10 11 12 13 14 15 16 17 18 19 20 21 22 23 24 25 26 27 28 29 30 31 32 33 34 35 36 37 38 39 40 41 42 43 44 45 46 47 48 49 50
000
NZUS43 KILX 230910
HWRILX

AREA WEATHER ROUNDUP
NATIONAL WEATHER SERVICE, LINCOLN IL
400 AM CDT SAT AUG 23 2014


CITY           SKY/WX    TMP DP  RH WIND       PRES   REMARKS
BLOOMINGTON    CLEAR     72  71  96 SE5       29.97F
CHAMPAIGN      FOG       72  71  97 E5        29.96S VSB 1/4
DECATUR        PTCLDY    74  73  97 CALM      29.95F FOG
FLORA          CLEAR     75  75  99 S3        29.95S FOG
GALESBURG      PTCLDY    73  73  97 E3        29.94F FOG
JACKSONVILLE   CLEAR     77  76  95 SE3       29.94S FOG
LACON          PTCLDY    72  70  93 CALM      29.95S
LAWRENCEVILLE  MOCLDY    74  73  97 SE3       29.96S FOG
LITCHFIELD     CLEAR     76  75  98 SE3       29.94S FOG
$$


CITY           SKY/WX    TMP DP  RH WIND       PRES   REMARKS
LINCOLN        PTCLDY    76  74  94 CALM      29.92S FOG
MACOMB         CLEAR     74  74 100 E3        29.96F FOG
MATTOON        PTCLDY    75  74  96 SE5       29.95S FOG
MT CARMEL AP   PTCLDY    77  73  88 CALM      29.96S
OLNEY-NOBLE AP PTCLDY    75  75 100 CALM      29.95S FOG
PARIS          FOG       72  72 100 CALM      29.97S VSB 1/2
PEORIA         MOCLDY    76  73  91 CALM      29.95S
PONTIAC        CLEAR     72  72 100 E3        29.96F
RANTOUL        CLEAR     73  70  89 CALM      29.97F FOG
ROBINSON       PTCLDY    75  74  97 CALM      29.96S FOG
SPRINGFIELD    PTCLDY    78  75  90 CALM      29.93F HX  81
TAYLORVILLE    CLEAR     73  73 100 CALM      29.94S FOG
$$

...REGIONAL REPORTS...


CITY           SKY/WX    TMP DP  RH WIND       PRES   REMARKS
CHICAGO O`HARE CLOUDY    74  70  87 N5        29.98S FOG
KANKAKEE       FOG       69  69  99 CALM      29.97F VSB 3/4
MOLINE         MOCLDY    76  73  91 E5        29.94S
MOUNT VERNON   PTCLDY    77  72  83 CALM      29.95F
PITTSFIELD     PTCLDY    77  75  91 CALM      29.94S FOG
QUINCY         CLEAR     77  75  93 E5        29.93S
ROCKFORD       CLOUDY    74  71  91 CALM      29.98F
$$


CITY           SKY/WX    TMP DP  RH WIND       PRES   REMARKS
BURLINGTON     CLEAR     75  74  96 N5        29.94R FOG
CEDAR RAPIDS   CLOUDY    74  74 100 E8        29.91F FOG
DES MOINES     FOG       77  76  96 NE9       29.88S THUNDER VSB 1/2
KIRKSVILLE     PTCLDY    78  75  90 E8        29.94F HX  81
OTTUMWA        CLOUDY    76  75  97 NE8       29.91F FOG
ST LOUIS       MOCLDY    81  77  88 CALM      29.93S HX  88
$$


CITY           SKY/WX    TMP DP  RH WIND       PRES   REMARKS
TERRE HAUTE    FOG       72  71  97 E3        29.96F VSB 1/4
EVANSVILLE     CLOUDY    76  71  85 S3        29.97S
INDIANAPOLIS   CLEAR     71  69  93 CALM      29.97S
LAFAYETTE      PTCLDY    68  68 100 SW3       29.97R FOG
MADISON        CLOUDY    75  73  93 S6        29.97S FOG
MILWAUKEE      FOG       69  68  96 CALM      29.99F VSB 1/8
$$




USA.gov is the U.S. government's official web portal to all federal, state and local government web resources and services.